User: anonymous
Location: Unspecified
(0.0000°N, 0.0000°E)
Time: 01:45:21
(UTC+02:00)
Language:

SJ-6B - Orbit

View from above orbital plane
View from above orbital plane
View from above satellite
View from above satellite

Ground track
Ground track

The orbit data is extracted from the following two-line orbital elements,

1 28415U 04035C   14261.45660934  .00002145  00000-0  16104-3 0  2870
2 28415 097.7985 266.6903 0055017 276.1507 083.3451 15.02568254547755
Epoch (UTC): 18 September 2014 10:57:31
Eccentricity: 0.0055017
inclination: 97.7985°
perigee height: 521 km
apogee height: 597 km
right ascension of ascending node: 266.6903°
argument of perigee: 276.1507°
revolutions per day: 15.02568254
mean anomaly at epoch: 83.3451°
orbit number at epoch: 54775

The dashed part of the orbit path shows where the satellite is in the earth's shadow,  

DLR